Weather History for KBFW - November, 2011

Change the Weather History Date:

Saturday, November 19, 2011

  Actual Average Record
Temperature  
Mean Temperature 24 °F -  
Max Temperature 30 °F 33 °F 46 °F (2006)
Min Temperature 19 °F 17 °F 5 °F (1996)
Degree Days  
Heating Degree Days 40    
Moisture  
Dew Point 18 °F    
Average Humidity 74    
Maximum Humidity 93    
Minimum Humidity 64    
Precipitation  
Precipitation 0.00 in - - ()
Sea Level Pressure  
Sea Level Pressure 29.81 in    
Wind  
Wind Speed 3 mph (NNW)    
Max Wind Speed 13 mph    
Max Gust Speed 21 mph    
Visibility 10 miles    
Events      
Averages and records for this station are not official NWS values.
T = Trace of Precipitation, MM = Missing Value Source: NWS Daily Summary

Daily Weather History Graph

Daily Weather History Graph

Search for Another Location

Airport or City:

Trip Planner

Search our weather history database for the weather conditions in past years. The results will help you decide how hot, cold, wet, or windy it might be!

Date:

Astronomy

Nov. 19, 2011 Rise Set
Actual Time 7:15 AM CST 4:26 PM CST
Civil Twilight 6:41 AM CST 5:00 PM CST
Nautical Twilight 6:04 AM CST 5:37 PM CST
Astronomical Twilight 5:27 AM CST 6:13 PM CST
Moon 12:11 AM CST (11/19) 1:06 PM CST (11/19)
Length of Visible Light 10h 18m
Length of Day
9h 11m
Last Quarter, 38% of the Moon is Illuminated
Nov 19
Last Quarter
Nov 25
New
Dec 2
First Quarter
Dec 10
Full
Dec 17
Last Quarter

Hourly Weather History & Observations

Time (CST) Temp. Windchill Dew Point Humidity Pressure Visibility Wind Dir Wind Speed Gust Speed Precip Events Conditions
12:14 AM 28.4 °F - 24.8 °F 86% 29.71 in 10.0 mi Calm Calm - N/A   Overcast
12:34 AM 28.4 °F - 24.8 °F 86% 29.70 in 10.0 mi Calm Calm - N/A   Mostly Cloudy
12:54 AM 28.4 °F - 24.8 °F 86% 29.69 in 10.0 mi Calm Calm - N/A   Overcast
1:14 AM 28.4 °F - 24.8 °F 86% 29.68 in 7.0 mi Calm Calm - N/A   Mostly Cloudy
1:34 AM 28.4 °F 24.6 °F 24.8 °F 86% 29.69 in 7.0 mi NW 3.5 mph - N/A   Mostly Cloudy
1:54 AM 28.4 °F - 26.6 °F 93% 29.70 in 7.0 mi Calm Calm - N/A   Mostly Cloudy
2:14 AM 28.4 °F - 26.6 °F 93% 29.71 in 5.0 mi Calm Calm - N/A   Scattered Clouds
2:34 AM 30.2 °F - 26.6 °F 86% 29.71 in 5.0 mi Calm Calm - N/A   Scattered Clouds
2:54 AM 30.2 °F - 26.6 °F 86% 29.71 in 7.0 mi Calm Calm - N/A   Mostly Cloudy
3:14 AM 30.2 °F 25.4 °F 24.8 °F 80% 29.71 in 7.0 mi WNW 4.6 mph - N/A   Mostly Cloudy
3:34 AM 30.2 °F 26.7 °F 24.8 °F 80% 29.72 in 10.0 mi WNW 3.5 mph - N/A   Scattered Clouds
3:54 AM 28.4 °F 24.6 °F 23.0 °F 80% 29.73 in 10.0 mi WNW 3.5 mph - N/A   Scattered Clouds
4:14 AM 28.4 °F 23.3 °F 23.0 °F 80% 29.74 in 10.0 mi WNW 4.6 mph - N/A   Scattered Clouds
4:34 AM 28.4 °F 22.2 °F 23.0 °F 80% 29.74 in 10.0 mi NW 5.8 mph - N/A   Scattered Clouds
4:54 AM 28.4 °F 24.6 °F 21.2 °F 74% 29.76 in 10.0 mi WNW 3.5 mph - N/A   Scattered Clouds
5:14 AM 28.4 °F 20.4 °F 21.2 °F 74% 29.77 in 10.0 mi NW 8.1 mph - N/A   Scattered Clouds
5:34 AM 26.6 °F 20.0 °F 17.6 °F 69% 29.77 in 10.0 mi NW 5.8 mph - N/A   Scattered Clouds
5:54 AM 26.6 °F 22.6 °F 19.4 °F 74% 29.78 in 10.0 mi NNW 3.5 mph - N/A   Mostly Cloudy
6:14 AM 26.6 °F 19.1 °F 17.6 °F 69% 29.78 in 10.0 mi NNW 6.9 mph - N/A   Mostly Cloudy
6:34 AM 26.6 °F - 17.6 °F 69% 29.78 in 10.0 mi Calm Calm - N/A   Scattered Clouds
6:54 AM 24.8 °F 20.5 °F 17.6 °F 74% 29.78 in 10.0 mi NNW 3.5 mph - N/A   Scattered Clouds
7:14 AM 24.8 °F 20.5 °F 15.8 °F 69% 29.79 in 10.0 mi NNW 3.5 mph - N/A   Clear
7:54 AM 24.8 °F - 15.8 °F 69% 29.79 in 10.0 mi Calm Calm - N/A   Clear
8:14 AM 24.8 °F 19.1 °F 17.6 °F 74% 29.79 in 10.0 mi NNW 4.6 mph - N/A   Clear
8:34 AM 24.8 °F - 17.6 °F 74% 29.81 in 10.0 mi Calm Calm - N/A   Scattered Clouds
8:54 AM 24.8 °F - 17.6 °F 74% 29.81 in 10.0 mi Calm Calm - N/A   Scattered Clouds
9:14 AM 26.6 °F - 17.6 °F 69% 29.82 in 10.0 mi Calm Calm - N/A   Clear
9:34 AM 26.6 °F 21.2 °F 17.6 °F 69% 29.82 in 10.0 mi North 4.6 mph - N/A   Clear
9:54 AM 26.6 °F - 17.6 °F 69% 29.82 in 10.0 mi Calm Calm - N/A   Scattered Clouds
10:14 AM 26.6 °F - 17.6 °F 69% 29.82 in 10.0 mi Calm Calm - N/A   Clear
10:34 AM 26.6 °F - 17.6 °F 69% 29.84 in 10.0 mi Calm Calm - N/A   Clear
10:54 AM 26.6 °F 22.6 °F 17.6 °F 69% 29.85 in 10.0 mi WNW 3.5 mph - N/A   Scattered Clouds
11:14 AM 28.4 °F 24.6 °F 19.4 °F 69% 29.85 in 10.0 mi WNW 3.5 mph - N/A   Clear
12:14 PM 26.6 °F 22.6 °F 19.4 °F 74% 29.83 in 10.0 mi NNW 3.5 mph - N/A   Clear
12:34 PM 26.6 °F 22.6 °F 19.4 °F 74% 29.82 in 10.0 mi North 3.5 mph - N/A   Clear
12:54 PM 28.4 °F 20.4 °F 19.4 °F 69% 29.82 in 10.0 mi North 8.1 mph - N/A   Clear
1:14 PM 26.6 °F 20.0 °F 19.4 °F 74% 29.82 in 10.0 mi North 5.8 mph - N/A   Scattered Clouds
1:34 PM 28.4 °F 20.4 °F 19.4 °F 69% 29.81 in 10.0 mi North 8.1 mph - N/A   Clear
1:54 PM 28.4 °F 21.2 °F 17.6 °F 64% 29.80 in 10.0 mi North 6.9 mph - N/A   Clear
2:14 PM 28.4 °F 19.1 °F 19.4 °F 69% 29.79 in 10.0 mi NNW 10.4 mph 19.6 mph N/A   Clear
2:34 PM 26.6 °F 18.2 °F 17.6 °F 69% 29.80 in 10.0 mi North 8.1 mph 16.1 mph N/A   Scattered Clouds
2:54 PM 26.6 °F 17.5 °F 17.6 °F 69% 29.81 in 10.0 mi North 9.2 mph - N/A   Scattered Clouds
3:14 PM 24.8 °F 13.4 °F 15.8 °F 69% 29.83 in 10.0 mi North 12.7 mph 19.6 mph N/A   Mostly Cloudy
3:34 PM 24.8 °F 14.6 °F 15.8 °F 69% 29.84 in 10.0 mi North 10.4 mph 17.3 mph N/A   Scattered Clouds
3:54 PM 24.8 °F 15.3 °F 15.8 °F 69% 29.84 in 10.0 mi North 9.2 mph 18.4 mph N/A   Scattered Clouds
4:14 PM 24.8 °F 16.9 °F 15.8 °F 69% 29.86 in 10.0 mi NNW 6.9 mph 16.1 mph N/A   Scattered Clouds
4:34 PM 23.0 °F 17.0 °F 15.8 °F 74% 29.87 in 10.0 mi North 4.6 mph - N/A   Scattered Clouds
4:54 PM 23.0 °F 14.7 °F 15.8 °F 74% 29.88 in 10.0 mi North 6.9 mph - N/A   Scattered Clouds
5:14 PM 23.0 °F 15.8 °F 15.8 °F 74% 29.89 in 10.0 mi NNW 5.8 mph - N/A   Scattered Clouds
5:54 PM 21.2 °F 10.9 °F 12.2 °F 68% 29.90 in 10.0 mi North 9.2 mph 20.7 mph N/A   Mostly Cloudy
6:14 PM 21.2 °F 11.7 °F 12.2 °F 68% 29.91 in 10.0 mi North 8.1 mph - N/A   Scattered Clouds
6:34 PM 21.2 °F 10.1 °F 12.2 °F 68% 29.91 in 10.0 mi North 10.4 mph - N/A   Scattered Clouds
6:54 PM 19.4 °F 11.5 °F 12.2 °F 74% 29.92 in 10.0 mi North 5.8 mph - N/A   Clear
7:14 PM 19.4 °F 9.5 °F 12.2 °F 74% 29.92 in 10.0 mi North 8.1 mph - N/A   Clear
7:34 PM 19.4 °F 10.4 °F 10.4 °F 68% 29.93 in 10.0 mi North 6.9 mph - N/A   Clear
7:54 PM 19.4 °F 10.4 °F 10.4 °F 68% 29.95 in 10.0 mi North 6.9 mph - N/A   Clear
8:14 PM 19.4 °F 10.4 °F 10.4 °F 68% 29.96 in 10.0 mi North 6.9 mph - N/A   Scattered Clouds
8:34 PM 19.4 °F 10.4 °F 10.4 °F 68% 29.97 in 10.0 mi North 6.9 mph - N/A   Scattered Clouds
8:54 PM 19.4 °F 7.9 °F 10.4 °F 68% 29.99 in 10.0 mi North 10.4 mph 17.3 mph N/A   Scattered Clouds
9:14 PM 19.4 °F 8.6 °F 10.4 °F 68% 29.99 in 10.0 mi NNE 9.2 mph 16.1 mph N/A   Scattered Clouds
9:54 PM 19.4 °F 10.4 °F 10.4 °F 68% 30.02 in 10.0 mi North 6.9 mph - N/A   Mostly Cloudy
10:14 PM 17.6 °F 9.3 °F 8.6 °F 68% 30.03 in 10.0 mi North 5.8 mph - N/A   Scattered Clouds
10:34 PM 17.6 °F 9.3 °F 8.6 °F 68% 30.04 in 10.0 mi North 5.8 mph - N/A   Clear
10:54 PM 15.8 °F 7.2 °F 8.6 °F 73% 30.05 in 10.0 mi North 5.8 mph - N/A   Clear
11:14 PM 15.8 °F 7.2 °F 8.6 °F 73% 30.06 in 10.0 mi North 5.8 mph - N/A   Clear
11:35 PM 15.8 °F - 8.6 °F 73% 30.07 in 7.0 mi Calm Calm - N/A Snow Light Snow
11:54 PM 15.8 °F 7.2 °F 6.8 °F 68% 30.09 in 10.0 mi NNW 5.8 mph - N/A Snow Light Snow